www.pogodaiklimat.ru

Погода и климат >> Архив погоды >> Казахстан >> Караганда


АРХИВ ПОГОДЫ в Караганде

Время (UTC), дата Ветер
(напр.,м/с)
 
Видим.   Явления Облачность Т
(С)
Тd
(С)
f
(%)
Тe
(С)
Тes
(С)
Комфортность P
(гПа)
Po
(гПа)
Тmin
(С)
Tmax
(С)
R
(мм)
R24
(мм)
S
(см)
18 20.06 С 5 20 км 6/6 600 м
[Cb cap]
+20.0 +5.9 40 +21 +21 комфорт 1004.6 942.7 +28.2
21 20.06 С 2 20 км 3/3 1000 м
[Sc]
+17.2 +7.5 53 +18 +18 тепло 1004.9 942.3
00 21.06 СЗ 1 20 км ясно +14.3 +8.5 68 +15 +15 по сезону 1006.3 943.1
03 21.06 СВ 2 20 км ясно +21.0 +9.3 47 +23 +31 комфорт 1005.2 943.5
06 21.06 СВ 2 20 км ясно +24.2 +8.3 36 +25 +42 комфорт 1003.9 942.9 +13.8
09 21.06 В 2 20 км 3/3 1000 м
[Cu med, cong Ci fib]
+27.0 +8.5 31 +27 +38 жарко 1002.1 941.7
12 21.06 З 1 20 км 4/3 1000 м
[Cu med, cong Ci sp]
+27.7 +7.0 27 +27 +31 жарко 1001.1 940.9
15 21.06 СЗ 3 20 км 8/6 600 м
[Cb cap Ci fib]
+25.5 +7.7 32 +26 +26 жарко 1002.2 941.5 +28.4
18 21.06 С 1 20 км 5/5 1000 м
[Sc]
+20.0 +8.9 49 +22 +22 комфорт 1004.1 942.2 +28.4
21 21.06 штиль 0 20 км ясно +15.2 +10.0 71 +15 +15 по сезону 1004.9 942.0
00 22.06 штиль 0 20 км 5/0
[Ci fib]
+14.9 +9.9 72 +15 +15 по сезону 1005.1 942.2
03 22.06 СЗ 2 20 км 3/0
[Ci fib]
+23.2 +9.6 42 +25 +32 комфорт 1004.5 943.3
06 22.06 ЮЗ 2 20 км 6/1 1000 м
[Cu hum Ci sp]
+26.8 +7.7 30 +27 +40 жарко 1004.2 943.6 +13.4
09 22.06 З 4 20 км 8/1 1000 м
[Cu hum Ci sp]
+28.6 +6.5 25 +28 +35 жарко 1003.1 942.9
12 22.06 СЗ 2 20 км 8/0
[Ac lent Ci fib]
+28.2 +6.4 25 +27 +31 жарко 1003.1 942.8
15 22.06 С 2 20 км 8/0
[Ac lent Ci fib]
+24.5 +9.7 39 +25 +25 комфорт 1004.7 943.7 +29.8
18 22.06 СВ 3 20 км 3/0
[Ci fib]
+20.2 +5.7 39 +21 +21 комфорт 1005.6 943.6 +29.8
21 22.06 В 4 20 км 8/0
[Ac cast Ci fib]
+20.2 +4.0 34 +21 +21 комфорт 1004.5 942.6
00 23.06 В 5 20 км 9/0
[Ac trans Ci fib]
+19.5 +7.5 46 +20 +20 тепло 1004.3 942.2
03 23.06 В 4 20 км 9/4 600 м
[Cb cap Ac trans Ci fib]
+21.4 +10.8 51 +23 +25 комфорт 1003.0 941.6
06 23.06 В 5 20 км 9/3 600 м
[Cb cap Ac trans Ci sp]
+25.9 +11.5 41 +27 +31 жарко 1000.7 940.2 +19.0
09 23.06 Ю 3 10 км слабый ливневой дождь 10/8 600 м
[Cb cap Ac und]
+19.6 +16.5 82 +22 +23 комфорт 1002.5 940.8
12 23.06 С 5 20 км {ливн. осадки} 8/6 600 м
[Cb cap Ci fib]
+19.7 +15.1 75 +22 +23 комфорт 1001.2 939.6
15 23.06 СВ 4 20 км 3/3 1000 м
[Sc Ci fib]
+18.3 +14.6 79 +19 +19 прохладно 1000.9 939.0 +27.2
18 23.06 СВ 3 20 км зарница 3/3 600 м
[Cb cap]
+15.9 +14.0 88 +15 +15 прохладно 1000.2 937.9 +27.2 1
21 23.06 С 2 20 км 4/3 600 м
[Cb cap Ci fib]
+14.7 +13.5 93 +14 +14 по сезону 999.5 936.9
00 24.06 С 1 4000 м дымка 5/1 1000 м
[Sc Ci fib]
+14.1 +13.2 94 +14 +15 по сезону 1000.7 937.9
03 24.06 С 3 20 км 8/4 600 м
[Cb cap Ac trans Ci fib]
+17.6 +14.9 84 +18 +20 по сезону 1000.8 938.8
06 24.06 СЗ 3 20 км 8/5 600 м
[Cb cap Ci fib]
+21.9 +14.8 64 +25 +31 комфорт 1000.6 939.4 +13.7
09 24.06 С 2 20 км 6/3 1000 м
[Cu med, cong Ci fib]
+24.6 +13.6 50 +27 +36 жарко 1000.0 939.4
12 24.06 СЗ 3 20 км 8/5 1000 м
[Cu med, cong Ci fib]
+26.1 +10.2 37 +27 +29 жарко 1000.0 939.6
15 24.06 СВ 2 20 км 9/8 600 м
[Cb cap Ci fib]
+23.0 +12.4 51 +26 +26 жарко 1002.0 940.9 +27.6
18 24.06 штиль 0 20 км 8/8 600 м
[Cb cap]
+18.2 +14.1 77 +18 +18 по сезону 1004.9 942.7 +27.6
21 24.06 СЗ 1 10 км слабый ливневой дождь 8/8 600 м
[Cb cap]
+19.4 +14.7 74 +22 +22 комфорт 1005.8 943.8
00 25.06 ЮВ 1 20 км {ливн. осадки} 8/3 600 м
[Cb cap Ac trans Ci fib]
+16.3 +13.2 82 +17 +17 тепло 1006.9 944.2
03 25.06 ЮЗ 2 20 км 3/0
[Ci sp]
+22.2 +13.8 59 +25 +32 комфорт 1007.0 945.5
06 25.06 З 3 20 км 5/4 1000 м
[Cu hum Ci fib]
+25.3 +10.9 40 +26 +34 жарко 1006.8 945.9 +15.2 0.0
09 25.06 З 2 20 км 6/5 1000 м
[Cu med, cong Ci fib]
+27.7 +9.6 32 +28 +35 жарко 1005.6 945.1
12 25.06 З 3 20 км 8/3 1000 м
[Cu med, cong Ac cuf Cs]
+27.0 +8.8 32 +27 +29 жарко 1006.0 945.4
15 25.06 штиль 0 20 км 4/0
[Ac trans Ci fib]
+26.2 +7.5 30 +26 +26 жарко 1006.3 945.5 +28.8
18 25.06 ЮВ 2 20 км 3/0
[Ac trans]
+18.6 +10.4 59 +20 +20 тепло 1008.3 945.9 +28.8
21 25.06 ЮВ 1 20 км 3/0
[Ac trans]
+16.7 +9.8 64 +18 +18 тепло 1008.8 946.0
00 26.06 ЮВ 2 20 км 6/0
[Ac trans]
+16.6 +11.2 70 +17 +17 тепло 1008.6 945.8
03 26.06 Ю 3 20 км 1/0
[Ac trans]
+23.6 +11.7 47 +25 +31 комфорт 1006.8 945.5
06 26.06 ЮЗ 3 20 км 3/1 1000 м
[Cu hum Ac trans]
+29.5 +9.7 29 +29 +40 жарко 1004.7 944.7 +15.6
09 26.06 ЮВ 3 20 км {гроза, ливн. осадки} 8/4 600 м
[Cb cap Ci sp]
+30.7 +11.1 30 +31 +38 жарко 1002.9 943.2
12 26.06 Ю 4 20 км {гроза, ливн. осадки} 6/4 600 м
[Cb cap Ci fib]
+29.2 +10.5 31 +29 +31 жарко 1002.6 942.7
15 26.06 В 4 20 км зарница {гроза} 4/4 600 м
[Cb cap]
+24.1 +9.9 41 +25 +25 комфорт 1004.2 943.1 +31.7
18 26.06 В 2 20 км {гроза} 3/3 600 м
[Cb cap]
+20.4 +11.8 58 +23 +23 комфорт 1005.5 943.7 +31.7 2
21 26.06 СВ 1 20 км 3/3 1000 м
[Sc]
+16.9 +11.5 70 +18 +18 тепло 1006.0 943.4
00 27.06 С 5 20 км 9/4 600 м
[Cb cap Ci sp]
+15.9 +12.9 82 +15 +15 по сезону 1007.3 944.4
03 27.06 С 5 20 км 9/8 600 м
[Cb cap Ci sp]
+16.6 +9.5 63 +16 +16 прохладно 1009.5 946.6
06 27.06 СВ 4 10 км слабый ливневой дождь 9/8 600 м
[Cb cap Ac trans]
+18.3 +10.1 59 +18 +20 холодно 1010.0 947.4 +15.4
09 27.06 СВ 3 10 км слабый ливневой дождь 10/9 600 м
[Cb cap Ac trans]
+17.1 +11.9 71 +17 +18 очень
холодно
1012.2 949.3
12 27.06 С 2 20 км в посл. час ливневой дождь 9/8 600 м
[Cb cap Ac trans]
+16.6 +11.2 70 +17 +18 очень
холодно
1012.8 949.8
15 27.06 СВ 2 20 км {ливн. осадки} 8/5 600 м
[Cb cap Ac trans]
+16.4 +11.3 72 +17 +17 холодно 1014.2 951.0 +19.2

 

Местоположение метеостанции Караганда (Карагандинская область, Казахстан): широта 49.80 долгота 73.15 высота над уровнем моря 553 м.

В архиве по умолчанию представлена погода в Караганде за последнюю неделю. Архивные данные за месяц целиком и за предыдущие месяцы, начиная с января 2011 года, Вы можете получить, выбрав интересующий диапазон дат из раскрывающегося списка и нажав кнопку "Ввод!".

Внимание! Время в таблицах - всемирное. Для получения местного времени необходимо прибавить поправку, которая в Караганде равна 6 ч.

Смотрите также архив погоды в соседних городах и на ближайших метеорологических станциях:

Погода в Караганде-ШОС (Карагандинская область, Казахстан) (4 км)
Погода в Корнеевке (Карагандинская область, Казахстан) (11 км)
Погода в Темиртау (Карагандинская область, Казахстан) (33 км)
Погода в Топаре (Карагандинская область, Казахстан) (40 км)
Погода в Осакаровке (Карагандинская область, Казахстан) (94 км)
Погода в Молодежном (Карагандинская область, Казахстан) (107 км)
Погода в Бесобе (Карагандинская область, Казахстан) (108 км)
Погода в Жарыке (Карагандинская область, Казахстан) (108 км)
Погода в Кертинди (Карагандинская область, Казахстан) (114 км)
Погода в Киевке (Карагандинская область, Казахстан) (123 км)

Пояснения к столбцам:

Ветер - указаны скорость ветра в м/с - средняя за 10 мин, порывы в срок и между сроками (в фигурных скобках) и направление, откуда дует ветер: С - северный, СВ - северо-восточный, В - восточный, ЮВ - юго-восточный, Ю - южный, ЮЗ - юго-западный, З - западный, СЗ - северо-западный.
Видимость - горизонтальная дальность видимости в метрах или километрах. При видимости от 1 до 10 км при отсутствии осадков обычно наблюдается дымка, при ухудшении видимости до 1 км и менее - туман. В сухую погоду видимость может ухудшаться дымом, пылью или мглою.
Явления - указаны атмосферные явления, наблюдавшиеся в срок или в последний час перед сроком; фигурными скобками обозначены явления, наблюдавшиеся между сроками (за 1-3 часа до срока); квадратными скобками обозначены град или гололедные отложения с указанием их диаметра в мм.
Облачность - указаны через наклонную черту общая и нижняя облачность в баллах и высота нижней границы облаков в метрах; квадратными скобками обозначены формы облаков: Ci - перистые, Cs - перисто-слоистые, Cc - перисто-кучевые, Ac - высококучевые, As - высокослоистые, Sc - слоисто-кучевые, Ns - слоисто-дождевые, Cu - кучевые, Cb - кучево-дождевые. Подробнее классификацию облаков см. в Атласе облаков (PDF).
T - Температура воздуха - температура, измеренная на высоте 2 м над землей.
Td - Температура точки росы - температура, при понижении до которой содержащийся в воздухе водяной пар достигнет насыщения.
f - Относительная влажность воздуха - влажноcть воздуха, измеренная на высоте 2 м над землей.
Te - Эффективная температура - температура, которую ощущает одетый по сезону человек в тени. Характеристика душности погоды. При расчете учитывается влияние влажности воздуха и скорости ветра на теплоощущения человека.
Tes - Эффективная температура на солнце - температура, которую ощущает человек, с поправкой на солнечный нагрев. Характеристика знойности погоды. Зависит от высоты солнца над горизонтом, облачности и скорости ветра. Ночью, в пасмурную погоду, а также при ветре 12 м/с и более поправка равна нулю.
P - Атмосферное давление - приведенное к уровню моря атмосферное давление.
Po - Атмосферное давление - измеренное на уровне метеостанции атмосферное давление.
Tmin - Минимальная температура - минимум температуры воздуха на высоте 2 м над землей.
Tmax - Максимальная температура - максимум температуры воздуха на высоте 2 м над землей.
R - Количество осадков - Количество выпавших осадков за период времени, мм. При наведении курсора мыши на число - период времени, за который выпало указанное количество осадков.
R24 - Количество осадков - Количество выпавших осадков за 24 часа, мм.
S - Снежный покров - Высота снежного покрова, см. При наведении курсора мыши на число - состояние снежного покрова и степень покрытия местности в баллах.